Regional Weather Roundup
Issued by NWS Portland, ME

Current Version | Previous Version | Graphics & Text | Print | Product List | Glossary On
Versions: 1 2 3 4 5 6 7 8 9 10 11 12 13 14 15 16 17 18 19 20 21 22 23 24 25 26 27 28 29 30 31 32 33 34 35 36 37 38 39 40 41 42 43 44 45 46 47 48 49 50
000
ASUS41 KGYX 060705
RWRGYX
WEATHER ROUNDUP FOR MAINE AND NEW HAMPSHIRE
NATIONAL WEATHER SERVICE GRAY ME
300 AM EDT MON JUL 06 2015

MEZ002-005-006-010-012-015-018-020-021-024-026-027-029-060800-
MAINE

CITY           SKY/WX    TMP DP  RH WIND       PRES   REMARKS
PORTLAND       CLEAR     63  58  83 CALM      30.12R
SANFORD        CLOUDY    61  55  82 SW7       30.14R
BAR HARBOR     CLEAR     59  59 100 CALM      30.09R
WISCASSET      CLEAR     58  56  93 CALM      30.12R
ROCKLAND       PTCLDY    61  55  82 CALM      30.09R
FRYEBURG       CLEAR     57  55  93 CALM      30.15R
LEWISTONAUBURN CLEAR     61  55  82 CALM      30.12S
AUGUSTA        CLEAR     65  57  75 NW5       30.11S
WATERVILLE     CLEAR     61  54  77 CALM      30.09R
BANGOR         CLEAR     61  57  87 CALM      30.10R
GREENVILLE       N/A     59  56  89 CALM      30.11S
MILLINOCKET    PTCLDY    61  58  90 CALM      30.10R
HOULTON        PTCLDY    52  50  93 CALM      30.08R
PRESQUE ISLE   PTCLDY    54  48  82 S3        30.08R
FRENCHVILLE    PTCLDY    58  55  90 CALM      30.08R
CARIBOU        PTCLDY    57  54  89 CALM      30.07R
$$

NHZ002-005-008-009-011-012-014-060800-
NEW HAMPSHIRE

CITY           SKY/WX    TMP DP  RH WIND       PRES   REMARKS
PORTSMOUTH     PTCLDY    64  61  90 W1        30.11S
ROCHESTER      PTCLDY    61  57  87 NW5       30.13R
NASHUA         CLEAR     62  60  93 CALM      30.14S
MANCHESTER     MOCLDY    65  61  87 CALM      30.12S
CONCORD        MOCLDY    62  59  90 CALM      30.15R
LACONIA        MOCLDY    61  55  82 CALM      30.15R
PLYMOUTH       MOCLDY    58  58 100 CALM      30.16R
BERLIN         CLEAR     50  47  89 CALM      30.17R
WHITEFIELD     CLEAR     52  49  89 CALM      30.17R
JAFFREY        CLEAR     58  56  93 SE3       30.17F
KEENE          CLOUDY    57  54  88 CALM      30.16S VSB<1/4
LEBANON        PTCLDY    62  59  90 S5        30.15S
MT WASHINGTON  PTCLDY    46  45  93 NW23        N/A
$$

VTZ005-007-008-060800-
VERMONT

CITY           SKY/WX    TMP DP  RH WIND       PRES   REMARKS
ST JOHNSBURY     N/A     57  54  89 MISG      30.15R
MONTPELIER     FOG       56  55  97 CALM      30.21  VSB 1/2
BURLINGTON     CLEAR     61  57  87 CALM      30.13S
$$

MAZ007-012-024-CTZ003-RIZ002-NYZ038-NYZ072-060800-
SOUTHERN NEW ENGLAND AND NY

CITY           SKY/WX    TMP DP  RH WIND       PRES   REMARKS
BOSTON         CLEAR     71  61  70 W6        30.13S
WORCESTER      CLEAR     64  57  78 W6        30.17S
NANTUCKET      CLEAR     66  63  90 W9        30.15S
PROVIDENCE     CLEAR     67  63  87 CALM        N/A
HARTFORD       MOCLDY    62  60  93 N3        30.14S
ALBANY         MOCLDY    60  56  86 CALM      30.15R
NEW YORK CITY  MOCLDY    74  66  76 S5        30.13S
$$

ANZ081-ANZ082-ANZ150-NHZ014-MEZ023>029-060800-
COASTAL MARINE OBSERVATIONS

STATION/POSITION TIME  TEMP    WIND        PRES    WAVE
                       AIR SEA DIR/SP/G            HT/PER
                 (UTC) (F)     (DEG/KT/KT) (MB)    (FT/S)
MOUNT DESERT ROC 0600   63     270/ 12/ 12 1018.7F
MATINICUS ROCK   0600   61     300/ 10/ 10 1018.6F
ISLE OF SHOALS   0600   69     300/  8/  9 1019.1F
JEFFREYS LEDGE   0603      59                N/A     2/ 9
CASHES LEDGE BUO 0650   63 59              1018.8S   3/ 8
GEORGES BANK BUO 0550   61 58  260/ 10/ 12 1020.0    5/ 9
$$

.............KEY..............
   WCI - WIND CHILL
   TC  - TEMPERATURE IN CELSIUS
   VSB - VISIBILITY IN MILES
   HX  - HEAT INDEX
   FAIR- INDICATES FEW OR NO CLOUDS BELOW 12,000 FT, WITH NO
         SIGNIFICANT WEATHER AND/OR OBSTRUCTIONS TO VISIBILITY.





USA.gov is the U.S. government's official web portal to all federal, state and local government web resources and services.